2023/09/05 00:00:00,63.7,23.0
2023/09/05 00:10:00,63.7,23.3
2023/09/05 00:20:00,64.1,23.1
2023/09/05 00:30:00,63.6,23.2
2023/09/05 00:40:00,63.4,22.9
2023/09/05 00:50:00,63.4,23.1
2023/09/05 01:00:00,62.9,22.9
2023/09/05 01:10:00,62.6,22.8
2023/09/05 01:20:00,62.4,23.0
2023/09/05 01:30:00,62.3,22.9
2023/09/05 01:40:00,62.3,23.0
2023/09/05 01:50:00,62.2,23.1
2023/09/05 02:00:00,62.2,22.9
2023/09/05 02:10:00,62.3,22.7
2023/09/05 02:20:00,62.3,22.9
2023/09/05 02:30:00,62.1,22.5
2023/09/05 02:40:00,62.0,22.6
2023/09/05 02:50:00,62.1,23.7
2023/09/05 03:00:00,62.1,22.4
2023/09/05 03:10:00,62.2,22.3
2023/09/05 03:20:00,62.2,22.4
2023/09/05 03:30:00,62.3,22.4
2023/09/05 03:40:00,62.2,22.3
2023/09/05 03:50:00,62.2,22.2
2023/09/05 04:00:00,62.3,22.4
2023/09/05 04:10:00,62.3,22.6
2023/09/05 04:20:00,62.4,22.4
2023/09/05 04:30:00,62.3,22.4
2023/09/05 04:40:00,62.4,22.3
2023/09/05 04:50:00,62.1,22.4
2023/09/05 05:00:00,61.6,22.5
2023/09/05 05:10:00,61.4,22.3
2023/09/05 05:20:00,61.4,21.9
2023/09/05 05:30:00,61.6,22.5
2023/09/05 05:40:00,61.8,22.4
2023/09/05 05:50:00,61.8,22.4
2023/09/05 06:00:00,61.8,22.3
2023/09/05 06:10:00,61.9,22.5
2023/09/05 06:20:00,61.9,22.6
2023/09/05 06:30:00,61.8,22.7
2023/09/05 06:40:00,61.9,23.0
2023/09/05 06:50:00,61.9,23.0
2023/09/05 07:00:00,62.1,23.6
2023/09/05 07:10:00,62.0,23.0
2023/09/05 07:20:00,62.0,23.3
2023/09/05 07:30:00,62.0,24.0
2023/09/05 07:40:00,62.0,24.3
2023/09/05 07:50:00,61.9,24.0
2023/09/05 08:00:00,62.2,24.1
2023/09/05 08:10:00,62.3,24.5
2023/09/05 08:20:00,62.4,25.1
2023/09/05 08:30:00,62.6,25.4
2023/09/05 08:40:00,62.6,24.7
2023/09/05 08:50:00,62.6,24.5
2023/09/05 09:00:00,63.0,24.8
2023/09/05 09:10:00,63.0,25.1
2023/09/05 09:20:00,62.5,24.8
2023/09/05 09:30:00,62.4,24.7
2023/09/05 09:40:00,62.8,25.3
2023/09/05 09:50:00,62.9,25.9
2023/09/05 10:00:00,62.8,25.4
2023/09/05 10:10:00,62.6,24.5
2023/09/05 10:20:00,62.9,24.3
2023/09/05 10:30:00,63.1,24.5
2023/09/05 10:40:00,63.3,24.5
2023/09/05 10:50:00,63.4,24.8
2023/09/05 11:00:00,63.3,24.4
2023/09/05 11:10:00,62.8,24.4
2023/09/05 11:20:00,60.0,24.0
2023/09/05 11:30:00,60.4,24.0
2023/09/05 11:40:00,60.7,24.7
2023/09/05 11:50:00,60.7,26.0
2023/09/05 12:00:00,60.8,25.8
2023/09/05 12:10:00,60.9,24.8
2023/09/05 12:20:00,61.2,25.4
2023/09/05 12:30:00,60.7,26.3
2023/09/05 12:40:00,60.1,27.0
2023/09/05 12:50:00,59.4,25.8
2023/09/05 13:00:00,60.4,26.1
2023/09/05 13:10:00,61.4,26.3
2023/09/05 13:20:00,61.5,25.6
2023/09/05 13:30:00,61.6,25.6
2023/09/05 13:40:00,62.4,25.4
2023/09/05 13:50:00,62.6,24.9
2023/09/05 14:00:00,62.4,26.3
2023/09/05 14:10:00,61.5,27.1
2023/09/05 14:20:00,61.6,26.1
2023/09/05 14:30:00,61.9,26.8
2023/09/05 14:40:00,61.6,25.0
2023/09/05 14:50:00,62.4,25.9
2023/09/05 15:00:00,62.4,25.2
2023/09/05 15:10:00,62.5,25.4
2023/09/05 15:20:00,62.6,25.7
2023/09/05 15:30:00,62.2,26.1
2023/09/05 15:40:00,62.2,26.2
2023/09/05 15:50:00,62.3,26.1
2023/09/05 16:00:00,62.2,25.8
2023/09/05 16:10:00,62.4,24.9
2023/09/05 16:20:00,62.6,24.4
2023/09/05 16:30:00,63.0,24.3
2023/09/05 16:40:00,63.1,24.3
2023/09/05 16:50:00,63.0,24.0
2023/09/05 17:00:00,63.1,24.0
2023/09/05 17:10:00,63.2,23.8
2023/09/05 17:20:00,63.1,23.9
2023/09/05 17:30:00,63.0,23.7
2023/09/05 17:40:00,62.6,23.5
2023/09/05 17:50:00,62.5,23.6
2023/09/05 18:00:00,62.6,23.5
2023/09/05 18:10:00,62.6,23.5
2023/09/05 18:20:00,62.7,23.4
2023/09/05 18:30:00,62.7,23.5
2023/09/05 18:40:00,62.8,23.5
2023/09/05 18:50:00,62.9,23.5
2023/09/05 19:00:00,62.9,23.3
2023/09/05 19:10:00,62.9,23.2
2023/09/05 19:20:00,62.9,23.3
2023/09/05 19:30:00,62.9,23.2
2023/09/05 19:40:00,62.9,23.1
2023/09/05 19:50:00,63.0,22.8
2023/09/05 20:00:00,63.0,23.0
2023/09/05 20:10:00,63.1,22.9
2023/09/05 20:20:00,63.2,22.7
2023/09/05 20:30:00,63.1,22.6
2023/09/05 20:40:00,63.1,22.6
2023/09/05 20:50:00,63.1,22.5
2023/09/05 21:00:00,63.1,22.6
2023/09/05 21:10:00,63.1,22.6
2023/09/05 21:20:00,63.2,22.4
2023/09/05 21:30:00,63.2,22.5
2023/09/05 21:40:00,63.5,22.4
2023/09/05 21:50:00,63.6,22.7
2023/09/05 22:00:00,63.4,22.6
2023/09/05 22:10:00,63.4,22.3
2023/09/05 22:20:00,63.3,22.1
2023/09/05 22:30:00,63.3,22.2
2023/09/05 22:40:00,63.4,22.5
2023/09/05 22:50:00,63.4,22.5
2023/09/05 23:00:00,63.3,22.5
2023/09/05 23:10:00,63.4,22.5
2023/09/05 23:20:00,63.4,22.4
2023/09/05 23:30:00,63.4,22.9
2023/09/05 23:40:00,63.4,22.4
2023/09/05 23:50:00,63.4,22.7
